Location: Antichan
(42.9728°N, 0.6667°E)
Time: 12:51:52
(UTC+00:00)

Cosmos 1570 Rocket - Pass Details

Date: 15 August 2020
Orbit: 762 x 789 km, 74.1° (Epoch: 24 September)

Event Time Altitude Azimuth Distance (km) Brightness Sun altitude
Rises 21:05:56 0° 342° (NNW) 3,275 8.3 -20.5°
Reaches altitude 10° 21:08:21 10° 345° (NNW) 2,347 7.4 -20.8°
Maximum altitude 21:13:40 66° 68° (ENE) 858 4.1 -21.5°
Enters shadow 21:14:57 49° 126° (SE) 1,008 4.2 -21.7°
